Regional Weather Roundup
Issued by NWS

Home | Current Version | Previous Version | Text Only | Print | Product List | Glossary Off
Versions: 1 2 3 4 5 6 7 8 9 10 11 12 13 14 15 16 17 18 19 20 21 22 23 24 25 26 27 28 29 30 31 32 33 34 35 36 37 38 39 40 41 42 43 44 45 46 47 48 49 50

970
ASUS45 KCYS 152310
RWRWY

WYOMING REGIONAL WEATHER ROUNDUP
NATIONAL WEATHER SERVICE CHEYENNE WY
500 PM MDT TUE AUG 15 2017

NOTE:  "FAIR" INDICATES FEW OR NO CLOUDS BELOW 12,000 FEET
WITH NO SIGNIFICANT WEATHER AND/OR OBSTRUCTIONS TO VISIBILITY.

WYZ001-160000-
YELLOWSTONE NATIONAL PARK

CITY           SKY/WX    TMP DP  RH WIND       PRES   REMARKS
LK YELLOWSTONE   N/A     61  37  41 CALM      30.14S
W YELLOWSTONE  NOT AVBL

$$
WYZ002>013-054>058-071-098>099-160000-
NORTHERN WYOMING

CITY           SKY/WX    TMP DP  RH WIND       PRES   REMARKS
JACKSON        FAIR      66  41  39 SE12      30.04S
CODY           FAIR      69  48  47 NW5       29.99S
GREYBULL       FAIR      77  46  33 SW10      29.90S
WORLAND        FAIR      75  47  36 NE8       29.93S
SHERIDAN       FAIR      74  43  32 NE6       29.95S
BUFFALO        FAIR      66  42  41 NW7       30.00F
GILLETTE       FAIR      67  49  52 N7        29.96R
HULETT         FAIR      66  54  63 NW9       29.95S
NEWCASTLE      FAIR      70  52  52 NW12G17   29.93R

$$
WYZ014>020-022>026-101>103-160000-
CENTRAL WYOMING

CITY           SKY/WX    TMP DP  RH WIND       PRES   REMARKS
BIG PINEY      FAIR      70  39  32 N13       30.06R
PINEDALE       FAIR      66  34  30 NW12G18   30.08R
DUBOIS         CLOUDY    52  43  71 SW8       30.11R THUNDER
LANDER           N/A    N/A N/A N/A MISG      30.04R
RIVERTON       FAIR      70  48  45 W7        30.00S
CASPER         CLOUDY    62  53  72 N12       30.00R
DOUGLAS        PTSUNNY   61  55  81 NE16      29.95S

$$
WYZ021-027>030-104>119-160000-
SOUTHERN WYOMING

CITY           SKY/WX    TMP DP  RH WIND       PRES   REMARKS
EVANSTON       FAIR      72  25  17 W14G23    30.06S
KEMMERER         N/A     68  34  28 W9        30.08S
FORT BRIDGER   MOCLDY    71  34  25 N3        30.09S
ROCK SPRINGS   FAIR      65  46  50 SE8       30.07R
RAWLINS        CLOUDY    56  45  66 W7        30.10S
SARATOGA       RAIN      52  52 100 SE6       30.18R
LARAMIE        CLOUDY    56  45  66 N24G35    30.08R
CHEYENNE       FAIR      61  49  64 N6        29.97F
TORRINGTON     TSTM      63  55  75 NW18      29.90R
PINE BLUFFS    MOCLDY    66  45  45 N20G35    29.92R THUNDER

$$




USA.gov is the U.S. government's official web portal to all federal, state and local government web resources and services.